Weather History for Puyallup, WA

Change the Weather History Date:

Sunday, November 10, 2013

  Actual Average (KTCM) Record (KTCM)
Temperature  
Mean Temperature 46 °F -  
Max Temperature 50 °F 51 °F 64 °F (1983)
Min Temperature 42 °F 35 °F 24 °F (2000)
Degree Days  
Heating Degree Days 19    
Moisture  
Dew Point 46 °F    
Average Humidity 98    
Maximum Humidity 100    
Minimum Humidity 87    
Precipitation  
Precipitation 0.00 in - - ()
Sea Level Pressure  
Sea Level Pressure 30.11 in    
Wind  
Wind Speed 0 mph (North)    
Max Wind Speed 0 mph    
Max Gust Speed -    
Visibility 8 miles    
Events      
Averages and records for this station are not official NWS values.
T = Trace of Precipitation, MM = Missing Value Source: NWS Daily Summary

Daily Weather History Graph

Daily Weather History Graph

Search for Another Location

Airport:

Trip Planner

Search our weather history database for the weather conditions in past years. The results will help you decide how hot, cold, wet, or windy it might be!

Date:

Astronomy

Nov. 10, 2013 Rise Set
Actual Time 7:05 AM PST 4:39 PM PST
Civil Twilight 6:33 AM PST 5:12 PM PST
Nautical Twilight 5:56 AM PST 5:49 PM PST
Astronomical Twilight 5:20 AM PST 6:24 PM PST
Moon 1:13 PM PST (11/10) No Moon Set
Length of Visible Light 10h 39m
Length of Day
9h 33m
First Quarter, 56% of the Moon is Illuminated
Nov 10
First Quarter
Nov 17
Full
Nov 25
Last Quarter
Dec 2
New
Dec 9
First Quarter

Hourly Weather History & Observations

Time (PST) Temp. Dew Point Humidity Pressure Visibility Wind Dir Wind Speed Gust Speed Precip Events Conditions
12:15 AM 44.6 °F 44.6 °F 100% 30.10 in 5.0 mi Calm Calm - N/A   Mist
12:35 AM 44.6 °F 44.6 °F 100% 30.10 in 5.0 mi Calm Calm - N/A   Mist
12:55 AM 44.6 °F 44.6 °F 100% 30.10 in 5.0 mi Calm Calm - N/A   Mist
1:15 AM 44.6 °F 44.6 °F 100% 30.10 in 5.0 mi Calm Calm - N/A   Mist
1:35 AM 44.6 °F 44.6 °F 100% 30.11 in 5.0 mi Calm Calm - N/A   Mist
1:55 AM 44.6 °F 44.6 °F 100% 30.09 in 4.0 mi Calm Calm - N/A   Mist
2:15 AM 44.6 °F 44.6 °F 100% 30.10 in 6.0 mi Calm Calm - N/A   Mist
2:35 AM 44.6 °F 44.6 °F 100% 30.10 in 4.0 mi Calm Calm - N/A   Mist
2:55 AM 42.8 °F 42.8 °F 100% 30.09 in 4.0 mi Calm Calm - N/A   Mist
3:15 AM 42.8 °F 42.8 °F 100% 30.09 in 3.0 mi Calm Calm - N/A   Mist
3:35 AM 42.8 °F 42.8 °F 100% 30.09 in 3.0 mi Calm Calm - N/A   Mist
3:55 AM 42.8 °F 42.8 °F 100% 30.08 in 5.0 mi Calm Calm - N/A   Mist
4:15 AM 42.8 °F 42.8 °F 100% 30.08 in 5.0 mi Calm Calm - N/A   Mist
4:35 AM 44.6 °F 44.6 °F 100% 30.09 in 5.0 mi Calm Calm - N/A   Mist
4:55 AM 44.6 °F 44.6 °F 100% 30.09 in 5.0 mi Calm Calm - N/A   Mist
5:15 AM 44.6 °F 44.6 °F 100% 30.09 in 3.0 mi Calm Calm - N/A   Mist
5:35 AM 44.6 °F 44.6 °F 100% 30.09 in 5.0 mi Calm Calm - N/A   Mist
5:55 AM 44.6 °F 44.6 °F 100% 30.09 in 7.0 mi Calm Calm - N/A   Unknown
6:15 AM 44.6 °F 44.6 °F 100% 30.10 in 7.0 mi Calm Calm - N/A   Unknown
6:35 AM 44.6 °F 44.6 °F 100% 30.10 in 10.0 mi Calm Calm - N/A   Unknown
6:55 AM 44.6 °F 44.6 °F 100% 30.11 in 9.0 mi Calm Calm - N/A   Unknown
7:15 AM 44.6 °F 44.6 °F 100% 30.11 in 10.0 mi Calm Calm - N/A   Unknown
7:35 AM 44.6 °F 44.6 °F 100% 30.11 in 5.0 mi Calm Calm - N/A   Mist
7:55 AM 44.6 °F 44.6 °F 100% 30.11 in 9.0 mi Calm Calm - N/A   Unknown
8:15 AM 44.6 °F 44.6 °F 100% 30.11 in 10.0 mi Calm Calm - N/A   Unknown
8:35 AM 44.6 °F 44.6 °F 100% 30.12 in 10.0 mi Calm Calm - N/A   Unknown
8:55 AM 44.6 °F 44.6 °F 100% 30.13 in 10.0 mi Calm Calm - N/A   Unknown
9:15 AM 44.6 °F 44.6 °F 100% 30.13 in 10.0 mi Calm Calm - N/A   Unknown
9:35 AM 46.4 °F 46.4 °F 100% 30.14 in 10.0 mi Calm Calm - N/A   Unknown
9:55 AM 46.4 °F 46.4 °F 100% 30.13 in 10.0 mi Calm Calm - N/A   Unknown
10:15 AM 46.4 °F 46.4 °F 100% 30.13 in 10.0 mi Calm Calm - N/A   Unknown
10:35 AM 46.4 °F 46.4 °F 100% 30.14 in 10.0 mi Calm Calm - N/A   Unknown
10:55 AM 46.4 °F 46.4 °F 100% 30.13 in 10.0 mi Calm Calm - N/A   Unknown
11:15 AM 46.4 °F 46.4 °F 100% 30.14 in 10.0 mi Calm Calm - N/A   Unknown
11:35 AM 48.2 °F 46.4 °F 93% 30.14 in 10.0 mi Calm Calm - N/A   Unknown
11:55 AM 48.2 °F 46.4 °F 93% 30.13 in 10.0 mi Calm Calm - N/A   Unknown
12:15 PM 48.2 °F 46.4 °F 93% 30.13 in 10.0 mi Calm Calm - N/A   Unknown
12:35 PM 48.2 °F 46.4 °F 93% 30.12 in 10.0 mi Calm Calm - N/A   Unknown
12:55 PM 48.2 °F 46.4 °F 93% 30.12 in 10.0 mi Calm Calm - N/A   Unknown
1:15 PM 48.2 °F 46.4 °F 93% 30.12 in 10.0 mi Calm Calm - N/A   Unknown
1:35 PM 48.2 °F 46.4 °F 93% 30.12 in 10.0 mi Calm Calm - N/A   Unknown
1:55 PM 48.2 °F 46.4 °F 93% 30.12 in 10.0 mi Calm Calm - N/A   Unknown
2:15 PM 50.0 °F 46.4 °F 87% 30.12 in 10.0 mi Calm Calm - N/A   Unknown
2:35 PM 50.0 °F 46.4 °F 87% 30.11 in 10.0 mi Calm Calm - N/A   Unknown
2:55 PM 50.0 °F 46.4 °F 87% 30.11 in 10.0 mi Calm Calm - N/A   Unknown
3:15 PM 50.0 °F 46.4 °F 87% 30.11 in 10.0 mi Calm Calm - N/A   Unknown
3:35 PM 50.0 °F 46.4 °F 87% 30.11 in 10.0 mi Calm Calm - N/A   Unknown
3:55 PM 48.2 °F 46.4 °F 93% 30.12 in 10.0 mi Calm Calm - N/A   Unknown
4:15 PM 48.2 °F 46.4 °F 93% 30.12 in 10.0 mi Calm Calm - N/A   Unknown
4:35 PM 48.2 °F 46.4 °F 93% 30.12 in 10.0 mi Calm Calm - N/A   Unknown
4:55 PM 48.2 °F 46.4 °F 93% 30.12 in 10.0 mi Calm Calm - N/A   Unknown
5:15 PM 48.2 °F 46.4 °F 93% 30.12 in 10.0 mi Calm Calm - N/A   Unknown
5:35 PM 48.2 °F 46.4 °F 93% 30.12 in 10.0 mi Calm Calm - N/A   Unknown
5:55 PM 48.2 °F 46.4 °F 93% 30.12 in 10.0 mi Calm Calm - N/A   Unknown
6:15 PM 48.2 °F 46.4 °F 93% 30.12 in 10.0 mi Calm Calm - N/A   Unknown
6:35 PM 46.4 °F 46.4 °F 100% 30.12 in 10.0 mi Calm Calm - N/A   Unknown
6:55 PM 46.4 °F 46.4 °F 100% 30.12 in 10.0 mi Calm Calm - N/A   Unknown
7:15 PM 46.4 °F 46.4 °F 100% 30.13 in 10.0 mi Calm Calm - N/A   Unknown
7:35 PM 46.4 °F 46.4 °F 100% 30.13 in 10.0 mi Calm Calm - N/A   Unknown
7:55 PM 46.4 °F 46.4 °F 100% 30.13 in 10.0 mi Calm Calm - N/A   Unknown
8:15 PM 46.4 °F 46.4 °F 100% 30.13 in 10.0 mi Calm Calm - N/A   Unknown
8:35 PM 46.4 °F 46.4 °F 100% 30.13 in 10.0 mi Calm Calm - N/A   Unknown
8:55 PM 46.4 °F 46.4 °F 100% 30.13 in 10.0 mi Calm Calm - N/A   Unknown
9:15 PM 46.4 °F 46.4 °F 100% 30.13 in 10.0 mi Calm Calm - N/A   Unknown
9:35 PM 46.4 °F 46.4 °F 100% 30.13 in 8.0 mi Calm Calm - N/A   Unknown
9:55 PM 46.4 °F 46.4 °F 100% 30.13 in 10.0 mi Calm Calm - N/A   Unknown
10:15 PM 46.4 °F 46.4 °F 100% 30.13 in 10.0 mi Calm Calm - N/A   Unknown
10:35 PM 46.4 °F 46.4 °F 100% 30.13 in 10.0 mi Calm Calm - N/A   Unknown
10:55 PM 46.4 °F 46.4 °F 100% 30.12 in 10.0 mi Calm Calm - N/A   Unknown
11:15 PM 46.4 °F 46.4 °F 100% 30.12 in 10.0 mi Calm Calm - N/A   Unknown
11:35 PM 46.4 °F 46.4 °F 100% 30.12 in 10.0 mi Calm Calm - N/A   Unknown
11:55 PM 46.4 °F 46.4 °F 100% 30.11 in 10.0 mi Calm Calm - N/A   Unknown